Location: Unspecified
(0.0000°N, 0.0000°E)
Time: 18:50:57
(UTC+00:00)

FORMOSAT 3E - Visible Passes

Search period start: 17 May 2026 00:00
Search period end: 27 May 2026 00:00
Orbit: 740 x 833 km, 72.0° (Epoch: 17 May)

Date Brightness Start Highest point End Pass type
(mag) Time Alt. Az. Time Alt. Az. Time Alt. Az.
17 May 10.2 19:27:51 10° NE 19:28:06 11° NE 19:28:06 11° NE visible
18 May 10.1 20:36:50 10° NNW 20:38:35 21° NW 20:38:35 21° NW visible
19 May 8.9 20:05:04 10° NNW 20:08:26 43° NNW 20:08:26 43° NNW visible
20 May 8.1 19:33:38 10° N 19:38:21 54° ENE 19:38:21 54° ENE visible
21 May 8.7 19:02:34 10° NNE 19:07:04 31° ENE 19:08:20 28° ESE visible
21 May 10.6 20:46:49 10° WNW 20:49:03 14° W 20:49:03 14° W visible
22 May 9.4 18:32:01 10° NNE 18:35:30 18° ENE 18:38:22 12° ESE visible
22 May 9.8 20:13:46 10° NW 20:17:54 25° WSW 20:19:06 23° SW visible
23 May 9.0 19:41:30 10° NW 19:46:19 42° WSW 19:49:12 22° SSW visible
24 May 8.1 19:09:38 10° NNW 19:14:45 75° WSW 19:19:21 13° S visible
25 May 8.0 18:38:07 10° N 18:43:11 63° ENE 18:48:22 10° SSE visible
26 May 10.7 19:51:58 10° W 19:54:05 12° WSW 19:56:14 10° SW visible
